Voltar ao catálogo

SL-6 R/B(2)

AtivoHEO
NORAD 23587·ROCKET BODY·🇷🇺 Russia

Lançado May 24, 1995 de Plesetsk Cosmodrome

Loading…

Próximas Passagens (próximas 24 horas)

TLE

AtualizadoSource: Space-Track

Época: Sep 13, 2026, 14:40 UTC

1 23587U 95026D   26256.61152064  .00000322  00000-0  00000-0 0  9990
2 23587  66.6639 197.5426 6589699  29.2347 355.2104  2.03309763232387

Acompanhe SL-6 R/B(2) em tempo real com AllMySat

Download on the App Store